TimeCDT,TemperatureF,Dew PointF,Humidity,Sea Level PressureIn,VisibilityMPH,Wind Direction,Wind SpeedMPH,Gust SpeedMPH,PrecipitationIn,Events,Conditions,WindDirDegrees,DateUTC
12:15 AM,64.4,55.4,73,29.70,10.0,South,15.0,-,N/A,,Partly Cloudy,190,2013-05-21 05:15:00
12:35 AM,66.2,55.4,68,29.71,10.0,SSW,19.6,-,N/A,,Mostly Cloudy,210,2013-05-21 05:35:00
12:55 AM,66.2,55.4,68,29.70,10.0,SSW,17.3,28.8,N/A,,Mostly Cloudy,200,2013-05-21 05:55:00
1:15 AM,66.2,55.4,68,29.69,10.0,South,17.3,24.2,N/A,,Mostly Cloudy,190,2013-05-21 06:15:00
1:35 AM,64.4,55.4,73,29.68,10.0,SSW,16.1,-,N/A,,Scattered Clouds,210,2013-05-21 06:35:00
1:55 AM,64.4,55.4,73,29.67,10.0,SSW,12.7,-,N/A,,Partly Cloudy,200,2013-05-21 06:55:00
2:15 AM,62.6,55.4,77,29.67,10.0,South,12.7,-,N/A,,Clear,190,2013-05-21 07:15:00
2:35 AM,62.6,55.4,77,29.66,10.0,SSW,13.8,-,N/A,,Clear,200,2013-05-21 07:35:00
2:55 AM,62.6,55.4,77,29.64,10.0,South,9.2,-,N/A,,Partly Cloudy,180,2013-05-21 07:55:00
3:15 AM,62.6,55.4,77,29.65,10.0,SSW,8.1,-,N/A,,Scattered Clouds,200,2013-05-21 08:15:00
3:35 AM,62.6,55.4,77,29.66,10.0,South,8.1,-,N/A,,Partly Cloudy,190,2013-05-21 08:35:00
3:55 AM,62.6,55.4,77,29.66,10.0,SSW,11.5,-,N/A,,Partly Cloudy,210,2013-05-21 08:55:00
4:15 AM,62.6,55.4,77,29.67,10.0,SSW,9.2,-,N/A,,Clear,210,2013-05-21 09:15:00
4:35 AM,62.6,55.4,77,29.66,10.0,SSW,9.2,-,N/A,,Partly Cloudy,200,2013-05-21 09:35:00
4:55 AM,60.8,55.4,82,29.66,10.0,SSW,10.4,-,N/A,,Clear,200,2013-05-21 09:55:00
5:15 AM,60.8,55.4,82,29.67,10.0,SSW,9.2,-,N/A,,Clear,200,2013-05-21 10:15:00
5:35 AM,60.8,55.4,82,29.67,10.0,SSW,9.2,-,N/A,,Partly Cloudy,200,2013-05-21 10:35:00
5:55 AM,60.8,57.2,88,29.67,10.0,South,9.2,-,N/A,,Scattered Clouds,190,2013-05-21 10:55:00
6:15 AM,62.6,57.2,82,29.68,10.0,SSW,11.5,-,N/A,,Scattered Clouds,210,2013-05-21 11:15:00
6:35 AM,62.6,57.2,82,29.68,10.0,SSW,15.0,21.9,N/A,,Mostly Cloudy,200,2013-05-21 11:35:00
6:55 AM,62.6,57.2,82,29.68,10.0,SSW,16.1,21.9,N/A,,Overcast,200,2013-05-21 11:55:00
7:15 AM,64.4,57.2,77,29.68,10.0,SSW,15.0,20.7,N/A,,Overcast,210,2013-05-21 12:15:00
7:35 AM,64.4,57.2,77,29.68,10.0,SSW,15.0,21.9,N/A,,Mostly Cloudy,210,2013-05-21 12:35:00
7:55 AM,64.4,57.2,77,29.68,10.0,SSW,17.3,21.9,N/A,,Mostly Cloudy,210,2013-05-21 12:55:00
8:15 AM,66.2,59.0,78,29.68,10.0,SSW,15.0,21.9,N/A,,Mostly Cloudy,210,2013-05-21 13:15:00
8:35 AM,66.2,59.0,78,29.68,10.0,SW,16.1,-,N/A,,Mostly Cloudy,220,2013-05-21 13:35:00
8:55 AM,68.0,59.0,73,29.69,10.0,SW,15.0,-,N/A,,Scattered Clouds,220,2013-05-21 13:55:00
9:15 AM,69.8,59.0,68,29.69,10.0,SW,15.0,-,N/A,,Partly Cloudy,220,2013-05-21 14:15:00
9:35 AM,69.8,59.0,68,29.69,10.0,SW,18.4,-,N/A,,Partly Cloudy,220,2013-05-21 14:35:00
9:55 AM,71.6,57.2,60,29.69,10.0,SW,16.1,23.0,N/A,,Partly Cloudy,230,2013-05-21 14:55:00
10:15 AM,71.6,57.2,60,29.69,10.0,SW,16.1,21.9,N/A,,Mostly Cloudy,220,2013-05-21 15:15:00
10:35 AM,71.6,57.2,60,29.69,10.0,WSW,20.7,24.2,N/A,,Scattered Clouds,240,2013-05-21 15:35:00
10:55 AM,73.4,57.2,57,29.69,10.0,SSW,18.4,23.0,N/A,,Scattered Clouds,210,2013-05-21 15:55:00
11:15 AM,73.4,57.2,57,29.69,10.0,SW,19.6,24.2,N/A,,Scattered Clouds,220,2013-05-21 16:15:00
11:35 AM,73.4,57.2,57,29.69,10.0,SW,17.3,26.5,N/A,,Mostly Cloudy,220,2013-05-21 16:35:00
11:55 AM,71.6,55.4,57,29.69,10.0,SW,19.6,26.5,N/A,,Mostly Cloudy,230,2013-05-21 16:55:00
12:15 PM,71.6,55.4,57,29.70,10.0,WSW,19.6,25.3,N/A,,Mostly Cloudy,240,2013-05-21 17:15:00
12:35 PM,73.4,55.4,53,29.70,10.0,WSW,19.6,24.2,N/A,,Mostly Cloudy,240,2013-05-21 17:35:00
12:55 PM,75.2,55.4,50,29.70,10.0,SW,21.9,25.3,N/A,,Scattered Clouds,220,2013-05-21 17:55:00
1:15 PM,75.2,55.4,50,29.70,10.0,WSW,19.6,27.6,N/A,,Partly Cloudy,250,2013-05-21 18:15:00
1:35 PM,75.2,55.4,50,29.71,10.0,SW,19.6,25.3,N/A,,Mostly Cloudy,230,2013-05-21 18:35:00
1:55 PM,75.2,57.2,53,29.71,10.0,WSW,20.7,26.5,N/A,,Mostly Cloudy,240,2013-05-21 18:55:00
2:15 PM,73.4,55.4,53,29.71,10.0,WSW,18.4,24.2,N/A,,Mostly Cloudy,240,2013-05-21 19:15:00
2:35 PM,75.2,55.4,50,29.70,10.0,SSW,16.1,21.9,N/A,,Scattered Clouds,210,2013-05-21 19:35:00
2:55 PM,75.2,55.4,50,29.70,10.0,WSW,17.3,20.7,N/A,,Partly Cloudy,250,2013-05-21 19:55:00
3:15 PM,75.2,53.6,47,29.70,10.0,WSW,15.0,-,N/A,,Scattered Clouds,250,2013-05-21 20:15:00
3:35 PM,75.2,55.4,50,29.69,10.0,WSW,20.7,25.3,N/A,,Mostly Cloudy,240,2013-05-21 20:35:00
3:55 PM,75.2,55.4,50,29.69,10.0,WSW,18.4,24.2,N/A,,Scattered Clouds,250,2013-05-21 20:55:00
4:15 PM,75.2,55.4,50,29.69,10.0,WSW,19.6,24.2,N/A,,Scattered Clouds,240,2013-05-21 21:15:00
4:35 PM,77.0,55.4,47,29.70,10.0,WSW,17.3,24.2,N/A,,Partly Cloudy,250,2013-05-21 21:35:00
4:55 PM,75.2,55.4,50,29.70,10.0,WSW,17.3,24.2,N/A,,Scattered Clouds,240,2013-05-21 21:55:00
5:15 PM,73.4,55.4,53,29.69,10.0,WSW,13.8,18.4,N/A,,Mostly Cloudy,250,2013-05-21 22:15:00
5:35 PM,75.2,55.4,50,29.69,10.0,WSW,13.8,-,N/A,,Scattered Clouds,250,2013-05-21 22:35:00
5:55 PM,73.4,55.4,53,29.68,10.0,WSW,13.8,18.4,N/A,,Scattered Clouds,250,2013-05-21 22:55:00
6:15 PM,75.2,55.4,50,29.68,10.0,WSW,16.1,-,N/A,,Partly Cloudy,250,2013-05-21 23:15:00
6:35 PM,75.2,55.4,50,29.68,10.0,WSW,12.7,-,N/A,,Scattered Clouds,250,2013-05-21 23:35:00
6:55 PM,73.4,53.6,50,29.68,10.0,WSW,12.7,-,N/A,,Scattered Clouds,250,2013-05-21 23:55:00
7:15 PM,73.4,53.6,50,29.68,10.0,West,11.5,-,N/A,,Scattered Clouds,260,2013-05-22 00:15:00
7:35 PM,71.6,53.6,53,29.69,10.0,WSW,11.5,-,N/A,,Partly Cloudy,240,2013-05-22 00:35:00
7:55 PM,69.8,53.6,56,29.69,10.0,WSW,8.1,-,N/A,,Clear,240,2013-05-22 00:55:00
8:15 PM,68.0,53.6,60,29.69,10.0,WSW,8.1,-,N/A,,Clear,250,2013-05-22 01:15:00
8:35 PM,66.2,53.6,64,29.69,10.0,WSW,6.9,-,N/A,,Clear,240,2013-05-22 01:35:00
8:55 PM,66.2,53.6,64,29.70,10.0,WSW,5.8,-,N/A,,Clear,240,2013-05-22 01:55:00
9:15 PM,66.2,53.6,64,29.70,10.0,SSW,5.8,-,N/A,,Clear,210,2013-05-22 02:15:00
9:35 PM,66.2,51.8,60,29.70,10.0,SSW,4.6,-,N/A,,Clear,210,2013-05-22 02:35:00
9:55 PM,66.2,51.8,60,29.69,10.0,South,4.6,-,N/A,,Clear,190,2013-05-22 02:55:00
10:15 PM,64.4,51.8,64,29.69,10.0,SW,3.5,-,N/A,,Clear,220,2013-05-22 03:15:00
10:35 PM,64.4,51.8,64,29.69,10.0,SW,3.5,-,N/A,,Clear,220,2013-05-22 03:35:00
10:55 PM,64.4,51.8,64,29.69,10.0,SW,4.6,-,N/A,,Clear,230,2013-05-22 03:55:00
11:15 PM,62.6,51.8,68,29.69,10.0,West,3.5,-,N/A,,Clear,260,2013-05-22 04:15:00
11:35 PM,62.6,51.8,68,29.69,10.0,West,4.6,-,N/A,,Clear,260,2013-05-22 04:35:00
11:55 PM,60.8,51.8,72,29.68,10.0,WNW,5.8,-,N/A,,Clear,290,2013-05-22 04:55:00